Location: �perlecques
(50.8057°N, 2.1521°E)
Time: 07:29:55
(UTC+00:00)

SAR-Lupe-2 - Pass Details

Date: 09 April 2020
Orbit: 481 x 485 km, 98.1° (Epoch: 27 May)

Event Time Altitude Azimuth Distance (km) Brightness Sun altitude
Rises 20:14:46 0° 20° (NNE) 2,557 7.4 -14.8°
Reaches altitude 10° 20:16:57 10° 28° (NNE) 1,671 6.3 -15.1°
Maximum altitude 20:20:20 39° 99° (E) 734 4.0 -15.5°
Enters shadow 20:21:13 33° 135° (SE) 831 4.2 -15.7°
